Weather History for Southern Pines, NC

Change the Weather History Date:

Sunday, February 19, 2012

  Actual Average Record
Temperature  
Mean Temperature 42 °F -  
Max Temperature 51 °F 54 °F 76 °F (1981)
Min Temperature 33 °F 33 °F 15 °F (2007)
Degree Days  
Heating Degree Days 23    
Moisture  
Dew Point 38 °F    
Average Humidity 84    
Maximum Humidity 93    
Minimum Humidity 58    
Precipitation  
Precipitation 0.34 in - - ()
Sea Level Pressure  
Sea Level Pressure 29.84 in    
Wind  
Wind Speed 6 mph (NE)    
Max Wind Speed 18 mph    
Max Gust Speed 26 mph    
Visibility 8 miles    
Events      
Averages and records for this station are not official NWS values.
T = Trace of Precipitation, MM = Missing Value Source: NWS Daily Summary

Daily Weather History Graph

Daily Weather History Graph

Search for Another Location

Airport:

Trip Planner

Search our weather history database for the weather conditions in past years. The results will help you decide how hot, cold, wet, or windy it might be!

Date:

Astronomy

Feb. 19, 2012 Rise Set
Actual Time 6:59 AM EST 6:03 PM EST
Civil Twilight 6:34 AM EST 6:29 PM EST
Nautical Twilight 6:04 AM EST 6:58 PM EST
Astronomical Twilight 5:35 AM EST 7:28 PM EST
Moon 5:16 AM EST (2/19) 4:05 PM EST (2/19)
Length of Visible Light 11h 55m
Length of Day
11h 03m
Waning Crescent, 5% of the Moon is Illuminated
Feb 19
Waning Crescent
Feb 21
New
Feb 29
First Quarter
Mar 8
Full
Mar 14
Last Quarter

Hourly Weather History & Observations

Time (EST) Temp. Windchill Dew Point Humidity Pressure Visibility Wind Dir Wind Speed Gust Speed Precip Events Conditions
12:15 AM 51.8 °F - 39.2 °F 62% 29.95 in 10.0 mi Calm Calm - N/A   Unknown
12:35 AM 51.8 °F - 39.2 °F 62% 29.94 in 10.0 mi Calm Calm - N/A   Unknown
12:55 AM 51.8 °F - 37.4 °F 58% 29.93 in 10.0 mi Calm Calm - N/A   Unknown
1:15 AM 51.8 °F - 37.4 °F 58% 29.93 in 10.0 mi Calm Calm - N/A   Unknown
1:35 AM 51.8 °F - 37.4 °F 58% 29.93 in 10.0 mi Calm Calm - N/A   Unknown
1:55 AM 50.0 °F - 39.2 °F 66% 29.93 in 10.0 mi Calm Calm - N/A   Unknown
2:15 AM 48.2 °F - 42.8 °F 82% 29.94 in 10.0 mi Calm Calm - N/A   Unknown
2:35 AM 48.2 °F - 42.8 °F 82% 29.94 in 10.0 mi Calm Calm - 0.01 in   Unknown
2:55 AM 48.2 °F - 42.8 °F 82% 29.94 in 10.0 mi Calm Calm - 0.01 in   Unknown
3:15 AM 48.2 °F - 44.6 °F 87% 29.92 in 10.0 mi Calm Calm - 0.01 in   Unknown
3:35 AM 46.4 °F - 44.6 °F 93% 29.90 in 9.0 mi Calm Calm - 0.01 in   Unknown
4:15 AM 48.2 °F - 42.8 °F 82% 29.87 in 10.0 mi East 4.6 mph - N/A   Unknown
4:35 AM 48.2 °F - 42.8 °F 82% 29.86 in 10.0 mi ESE 6.9 mph - N/A   Unknown
4:55 AM 48.2 °F - 42.8 °F 82% 29.85 in 10.0 mi Calm Calm - N/A   Unknown
5:35 AM 48.2 °F - 44.6 °F 87% 29.87 in 10.0 mi ENE 4.6 mph - N/A   Unknown
5:55 AM 48.2 °F - 44.6 °F 87% 29.88 in 10.0 mi ENE 3.5 mph - N/A   Unknown
6:15 AM 48.2 °F - 44.6 °F 87% 29.87 in 10.0 mi ENE 6.9 mph - N/A   Unknown
6:35 AM 48.2 °F - 42.8 °F 82% 29.88 in 10.0 mi ENE 3.5 mph - N/A   Unknown
6:55 AM 48.2 °F - 42.8 °F 82% 29.88 in 10.0 mi NE 5.8 mph - N/A   Unknown
7:15 AM 48.2 °F - 42.8 °F 82% 29.88 in 10.0 mi ENE 5.8 mph - N/A   Unknown
7:35 AM 48.2 °F - 44.6 °F 87% 29.89 in 10.0 mi ENE 3.5 mph - N/A   Unknown
8:15 AM 48.2 °F - 42.8 °F 82% 29.90 in 8.0 mi ENE 11.5 mph - N/A   Unknown
8:35 AM 46.4 °F 40.7 °F 42.8 °F 87% 29.90 in 8.0 mi ENE 12.7 mph 20.7 mph N/A   Unknown
8:55 AM 46.4 °F 40.7 °F 42.8 °F 87% 29.89 in 7.0 mi ENE 12.7 mph 18.4 mph N/A   Unknown
9:15 AM 46.4 °F 39.8 °F 41.0 °F 81% 29.89 in 8.0 mi ENE 16.1 mph 20.7 mph N/A   Unknown
9:35 AM 44.6 °F 37.2 °F 41.0 °F 87% 29.90 in 7.0 mi ENE 17.3 mph - N/A   Unknown
9:55 AM 44.6 °F 37.2 °F 39.2 °F 81% 29.89 in 6.0 mi ENE 17.3 mph 25.3 mph N/A   Unknown
10:15 AM 42.8 °F 34.8 °F 39.2 °F 87% 29.89 in 3.0 mi ENE 17.3 mph 25.3 mph 0.01 in   Unknown
10:35 AM 42.8 °F 34.8 °F 39.2 °F 87% 29.89 in 3.0 mi ENE 17.3 mph 23.0 mph 0.01 in   Unknown
10:55 AM 42.8 °F 36.2 °F 39.2 °F 87% 29.89 in 5.0 mi ENE 12.7 mph 20.7 mph 0.01 in   Unknown
11:15 AM 41.0 °F 32.8 °F 37.4 °F 87% 29.87 in 3.0 mi NE 16.1 mph 24.2 mph 0.01 in   Unknown
11:35 AM 41.0 °F 34.7 °F 37.4 °F 87% 29.85 in 4.0 mi NE 10.4 mph 17.3 mph 0.02 in   Unknown
12:15 PM 41.0 °F 33.1 °F 37.4 °F 87% 29.84 in 5.0 mi NE 15.0 mph 20.7 mph 0.01 in   Unknown
12:35 PM 39.2 °F 32.0 °F 37.4 °F 93% 29.83 in 4.0 mi ENE 11.5 mph 16.1 mph 0.02 in   Unknown
12:55 PM 39.2 °F 32.0 °F 37.4 °F 93% 29.82 in 9.0 mi NE 11.5 mph 17.3 mph 0.03 in   Unknown
1:15 PM 39.2 °F 30.5 °F 37.4 °F 93% 29.77 in 10.0 mi ENE 16.1 mph 20.7 mph 0.01 in   Unknown
1:35 PM 39.2 °F 29.8 °F 35.6 °F 87% 29.77 in 10.0 mi ENE 18.4 mph 26.5 mph 0.01 in   Unknown
1:55 PM 39.2 °F 31.2 °F 35.6 °F 87% 29.75 in 10.0 mi ENE 13.8 mph 24.2 mph 0.01 in   Unknown
2:35 PM 39.2 °F 31.6 °F 35.6 °F 87% 29.72 in 7.0 mi ENE 12.7 mph 17.3 mph 0.05 in   Unknown
2:55 PM 37.4 °F 27.8 °F 35.6 °F 93% 29.71 in 5.0 mi ENE 17.3 mph 23.0 mph 0.12 in   Unknown
3:15 PM 37.4 °F - 35.6 °F 93% 29.76 in 5.0 mi Calm Calm - 0.05 in   Unknown
3:35 PM 39.2 °F 35.9 °F 35.6 °F 87% 29.76 in 6.0 mi ENE 4.6 mph - 0.07 in   Unknown
3:55 PM 37.4 °F 30.3 °F 35.6 °F 93% 29.75 in 10.0 mi NE 10.4 mph - 0.07 in   Unknown
4:15 PM 37.4 °F 29.3 °F 33.8 °F 87% 29.73 in 10.0 mi NE 12.7 mph 20.7 mph N/A   Unknown
4:35 PM 37.4 °F 30.8 °F 33.8 °F 87% 29.74 in 10.0 mi NE 9.2 mph - N/A   Unknown
4:55 PM 37.4 °F 32.1 °F 33.8 °F 87% 29.75 in 10.0 mi NNE 6.9 mph 17.3 mph N/A   Unknown
5:15 PM 37.4 °F 30.3 °F 33.8 °F 87% 29.74 in 10.0 mi NE 10.4 mph 16.1 mph N/A   Unknown
5:35 PM 37.4 °F 30.3 °F 33.8 °F 87% 29.72 in 10.0 mi NE 10.4 mph 16.1 mph N/A   Unknown
5:55 PM 37.4 °F 29.3 °F 33.8 °F 87% 29.73 in 10.0 mi NE 12.7 mph 20.7 mph N/A   Unknown
6:15 PM 37.4 °F 30.3 °F 32.0 °F 81% 29.74 in 10.0 mi NE 10.4 mph 20.7 mph N/A   Unknown
6:35 PM 37.4 °F 30.3 °F 33.8 °F 87% 29.73 in 10.0 mi NE 10.4 mph 17.3 mph N/A   Unknown
7:15 PM 37.4 °F 34.9 °F 32.0 °F 81% 29.78 in 9.0 mi NNE 3.5 mph - 0.01 in   Unknown
7:35 PM 35.6 °F 28.6 °F 32.0 °F 87% 29.78 in 10.0 mi North 9.2 mph 18.4 mph 0.02 in   Unknown
7:55 PM 35.6 °F 29.9 °F 32.0 °F 87% 29.82 in 5.0 mi North 6.9 mph - 0.03 in   Unknown
8:15 PM 35.6 °F 29.9 °F 32.0 °F 87% 29.83 in 5.0 mi North 6.9 mph - 0.02 in   Unknown
8:35 PM 35.6 °F 29.2 °F 30.2 °F 81% 29.83 in 9.0 mi North 8.1 mph - 0.03 in   Unknown
8:55 PM 33.8 °F 27.0 °F 30.2 °F 87% 29.84 in 10.0 mi North 8.1 mph - 0.03 in   Unknown
9:15 PM 33.8 °F 26.4 °F 30.2 °F 87% 29.85 in 10.0 mi North 9.2 mph 16.1 mph N/A   Unknown
9:35 PM 33.8 °F 27.7 °F 30.2 °F 87% 29.86 in 10.0 mi North 6.9 mph - N/A   Unknown
9:55 PM 33.8 °F 26.4 °F 28.4 °F 81% 29.87 in 10.0 mi NNE 9.2 mph - N/A   Unknown
10:15 PM 33.8 °F 29.6 °F 28.4 °F 81% 29.88 in 10.0 mi North 4.6 mph 18.4 mph N/A   Unknown
10:35 PM 33.8 °F 27.0 °F 28.4 °F 81% 29.88 in 9.0 mi North 8.1 mph - N/A   Unknown
11:15 PM 33.8 °F 27.7 °F 28.4 °F 81% 29.88 in 10.0 mi NNE 6.9 mph - N/A   Unknown
11:35 PM 33.8 °F 28.6 °F 28.4 °F 81% 29.89 in 10.0 mi NNE 5.8 mph - N/A   Unknown
11:55 PM 33.8 °F 29.6 °F 28.4 °F 81% 29.90 in 10.0 mi North 4.6 mph - N/A   Unknown